EUTELSAT 10B

Last updated on Tue Sep 22 2026 00:03:16 GMT+0000 (Coordinated Universal Time)

1 54259U 22157A 26264.34849671 .00000064 00000+0 00000+0 0 9992 2 54259 0.0549 101.3132 0001644 0.4084 33.9584 1.00271676 13991
UTC large
Height (km)
Speed (km/s)
/
Latitude / Longitude
Inclination (degrees)
Orbital Period (minutes)
Azimuth
Elevation
Range (km)
Doppler Factor

Next 0 passes for location: London (51.5072 / 0.1276)

No passes found over London.
EUTELSAT 10B